Stations météo

réclame
Mon MeteoGroup
Kinlochewe, Grande-Bretagne (99092): Température de l'air & dewpoint: 19.06.2019 13:00:00 - 25.06.2019 13:00:00 (BST)Kinlochewe, Grande-Bretagne (99092): Température de l'air -20cm: 19.06.2019 13:00:00 - 25.06.2019 13:00:00 (BST)Kinlochewe, Grande-Bretagne (99092): Quantités de précipitations: 19.06.2019 13:00:00 - 25.06.2019 13:00:00 (BST)
Date & Time tt [°C] td [°C] tt -20cm [°C] rr [mm]
25.06.2019 13:00:00 - - - -
25.06.2019 12:00:00 16,5 11,4 - 0,0
25.06.2019 11:00:00 14,9 11,2 - 0,0
25.06.2019 10:00:00 14,6 10,8 12,7 0,0
25.06.2019 09:00:00 14,4 10,8 - 0,0
25.06.2019 08:00:00 14,1 10,2 - 0,0
25.06.2019 07:00:00 13,3 10,4 - 0,0
25.06.2019 06:00:00 12,9 10,4 - 0,0
25.06.2019 05:00:00 12,8 10,0 - 0,0
25.06.2019 04:00:00 12,8 10,0 - 0,0
25.06.2019 03:00:00 12,7 10,1 - 0,0
25.06.2019 02:00:00 12,6 10,3 - 0,0
25.06.2019 01:00:00 12,7 10,4 - 0,0
25.06.2019 00:00:00 12,8 10,1 - 0,0
24.06.2019 23:00:00 13,1 9,9 - 0,0
24.06.2019 22:00:00 13,1 9,8 - 0,0
24.06.2019 21:00:00 13,1 9,9 - 0,0
24.06.2019 20:00:00 13,1 10,0 - 0,0
24.06.2019 19:00:00 12,8 10,3 - 0,0
24.06.2019 18:00:00 13,0 10,2 - 0,0
24.06.2019 17:00:00 12,5 10,2 - 0,0
24.06.2019 16:00:00 12,3 10,7 - 1,4
24.06.2019 15:00:00 12,0 10,9 - 2,4
24.06.2019 14:00:00 12,8 11,8 - 0,4
24.06.2019 13:00:00 12,8 11,6 - 1,8
24.06.2019 12:00:00 12,9 11,7 - 2,0
24.06.2019 11:00:00 13,3 12,1 - 1,8
24.06.2019 10:00:00 13,2 11,3 13,2 0,6
24.06.2019 09:00:00 14,2 10,3 - 0,0
24.06.2019 08:00:00 13,7 9,6 - 0,0
24.06.2019 07:00:00 13,2 7,7 - 0,0
24.06.2019 06:00:00 12,8 6,6 - 0,0
24.06.2019 05:00:00 12,7 6,3 - 0,0
24.06.2019 04:00:00 12,9 6,1 - 0,0
24.06.2019 03:00:00 14,0 5,9 - 0,0
24.06.2019 02:00:00 14,9 9,9 - 0,0
24.06.2019 01:00:00 15,2 11,0 - 0,0
24.06.2019 00:00:00 15,4 12,1 - 0,0
23.06.2019 23:00:00 15,6 12,4 - 0,0
23.06.2019 22:00:00 16,1 12,3 - 0,0
23.06.2019 21:00:00 17,6 11,5 - 0,0
23.06.2019 20:00:00 18,5 11,9 - 0,0
23.06.2019 19:00:00 19,5 11,5 - 0,0
23.06.2019 18:00:00 20,9 10,4 - 0,0
23.06.2019 17:00:00 21,9 10,5 - 0,0
23.06.2019 16:00:00 21,9 10,4 - 0,0
23.06.2019 15:00:00 22,6 10,5 - 0,0
23.06.2019 14:00:00 22,0 10,9 - 0,0
23.06.2019 13:00:00 21,3 9,8 - 0,0
23.06.2019 12:00:00 19,5 9,5 - 0,0
23.06.2019 11:00:00 18,7 8,3 - 0,0
23.06.2019 10:00:00 18,4 10,1 12,5 0,0
23.06.2019 09:00:00 16,3 10,6 - 0,0
23.06.2019 08:00:00 14,6 10,8 - 0,0
23.06.2019 07:00:00 12,2 10,4 - 0,0
23.06.2019 06:00:00 11,6 10,3 - 0,0
23.06.2019 05:00:00 11,0 10,1 - 0,0
23.06.2019 04:00:00 10,0 9,6 - 0,0
23.06.2019 03:00:00 10,4 9,3 - 0,0
23.06.2019 02:00:00 10,6 9,2 - 0,0
23.06.2019 01:00:00 10,2 9,4 - 0,0
23.06.2019 00:00:00 10,7 8,9 - 0,0
22.06.2019 23:00:00 12,0 8,7 - 0,0
22.06.2019 22:00:00 13,9 8,1 - 0,0
22.06.2019 21:00:00 15,9 7,4 - 0,0
22.06.2019 20:00:00 17,4 7,4 - 0,0
22.06.2019 19:00:00 18,3 6,2 - 0,0
22.06.2019 18:00:00 18,5 6,0 - 0,0
22.06.2019 17:00:00 18,2 6,2 - 0,0
22.06.2019 16:00:00 18,0 6,4 - 0,0
22.06.2019 15:00:00 18,8 8,4 - 0,0
22.06.2019 14:00:00 18,4 8,0 - 0,0
22.06.2019 13:00:00 17,5 8,9 - 0,0
22.06.2019 12:00:00 16,3 9,2 - 0,0
22.06.2019 11:00:00 15,7 6,7 - 0,0
22.06.2019 10:00:00 16,7 7,3 12,2 0,0
22.06.2019 09:00:00 15,4 6,8 - 0,0
22.06.2019 08:00:00 13,4 7,0 - 0,0
22.06.2019 07:00:00 10,1 5,8 - 0,0
22.06.2019 06:00:00 6,0 5,0 - 0,0
22.06.2019 05:00:00 5,4 5,0 - 0,0
22.06.2019 04:00:00 4,9 4,4 - 0,0
22.06.2019 03:00:00 5,5 5,0 - 0,0
22.06.2019 02:00:00 5,5 5,1 - 0,0
22.06.2019 01:00:00 6,7 5,9 - 0,0
22.06.2019 00:00:00 8,1 6,3 - 0,0
21.06.2019 23:00:00 9,4 5,7 - 0,0
21.06.2019 22:00:00 11,5 5,6 - 0,0
21.06.2019 21:00:00 11,6 4,2 - 0,0
21.06.2019 20:00:00 14,2 5,0 - 0,0
21.06.2019 19:00:00 14,3 4,0 - 0,0
21.06.2019 18:00:00 15,4 4,6 - 0,0
21.06.2019 17:00:00 14,4 4,0 - 0,0
21.06.2019 16:00:00 13,1 6,5 - 0,0
21.06.2019 15:00:00 14,3 6,7 - 0,0
21.06.2019 14:00:00 12,8 7,6 - 0,0
21.06.2019 13:00:00 13,7 6,6 - 0,0
21.06.2019 12:00:00 13,1 7,3 - 0,0
21.06.2019 11:00:00 11,9 7,8 - 0,0
21.06.2019 10:00:00 11,0 9,0 12,0 0,0
21.06.2019 09:00:00 10,3 9,0 - 0,0
21.06.2019 08:00:00 9,3 7,6 - 0,8
21.06.2019 07:00:00 8,9 7,3 - 0,0
21.06.2019 06:00:00 8,8 6,9 - 0,2
21.06.2019 05:00:00 7,6 7,4 - 0,6
21.06.2019 04:00:00 7,4 6,8 - 1,2
21.06.2019 03:00:00 7,6 7,3 - 1,2
21.06.2019 02:00:00 7,6 7,2 - 0,0
21.06.2019 01:00:00 7,9 7,0 - 1,0
21.06.2019 00:00:00 8,7 8,0 - 0,6
20.06.2019 23:00:00 7,8 7,3 - 1,8
20.06.2019 22:00:00 8,4 6,6 - 1,8
20.06.2019 21:00:00 9,1 7,9 - 6,4
20.06.2019 20:00:00 10,3 8,7 - 0,4
20.06.2019 19:00:00 12,7 8,5 - 0,2
20.06.2019 18:00:00 13,4 6,5 - 0,0
20.06.2019 17:00:00 14,3 6,3 - 0,0
20.06.2019 16:00:00 14,5 7,5 - 0,0
20.06.2019 15:00:00 15,1 8,7 - 0,2
20.06.2019 14:00:00 13,7 8,0 - 0,0
20.06.2019 13:00:00 13,5 9,2 - 0,2
20.06.2019 12:00:00 10,9 9,0 - 0,8
20.06.2019 11:00:00 11,0 8,6 - 0,6
20.06.2019 10:00:00 10,1 8,6 12,2 0,2
20.06.2019 09:00:00 10,3 8,1 - 0,6
20.06.2019 08:00:00 11,1 7,8 - 0,0
20.06.2019 07:00:00 10,2 7,4 - 0,2
20.06.2019 06:00:00 9,0 7,1 - 0,0
20.06.2019 05:00:00 8,0 7,4 - 0,0
20.06.2019 04:00:00 8,4 8,0 - 0,4
20.06.2019 03:00:00 9,7 7,9 - 0,0
20.06.2019 02:00:00 9,6 7,6 - 0,0
20.06.2019 01:00:00 8,0 7,3 - 0,0
20.06.2019 00:00:00 9,2 7,4 - 0,0
19.06.2019 23:00:00 10,4 8,1 - 0,0
19.06.2019 22:00:00 10,7 8,2 - 0,0
19.06.2019 21:00:00 11,6 9,0 - 0,0
19.06.2019 20:00:00 12,8 7,5 - 0,0
19.06.2019 19:00:00 13,5 5,7 - 0,0
19.06.2019 18:00:00 15,1 7,4 - 0,0
19.06.2019 17:00:00 16,0 9,4 - 0,0
19.06.2019 16:00:00 12,5 8,4 - 0,2
19.06.2019 15:00:00 15,7 8,7 - 0,0
19.06.2019 14:00:00 13,3 10,6 - 0,8
19.06.2019 13:00:00 14,9 10,4 - 0,2

tt = Température de l'air
td = dewpoint
tt -20cm = Température de l'air -20cm
rr = Quantités de précipitations

stations d'obs. à proximité